Location: Newark
(44.6768°N, 22.5302°E)
Time: 13:18:28
(UTC+00:00)

AO-92 - Pass Details

Date: 01 July 2022
Orbit: 469 x 481 km, 97.4° (Epoch: 17 August)

Event Time Altitude Azimuth Distance (km) Brightness Sun altitude
Exits shadow 21:17:01 21° 241° (WSW) 1,114 ? -20.0°
Maximum altitude 21:17:56 24° 265° (W) 1,042 ? -20.1°
Drops below altitude 10° 21:20:52 10° 321° (NW) 1,665 ? -20.2°
Sets 21:23:15 0° 335° (NNW) 2,554 ? -20.4°
